Regional Weather Roundup
Issued by NWS

Home | Current Version | Previous Version | Graphics & Text | Print | Product List | Glossary On
Versions: 1 2 3 4 5 6 7 8 9 10 11 12 13 14 15 16 17 18 19 20 21 22 23 24 25 26 27 28 29 30 31 32 33 34 35 36 37 38 39 40 41 42 43 44 45 46 47 48 49 50
000
ASUS43 KIND 200109
RWRIN

WEATHER ROUNDUP FOR INDIANA
NATIONAL WEATHER SERVICE INDIANAPOLIS IN
900 PM EDT SAT AUG 19 2017

NOTE: "FAIR" INDICATES FEW OR NO CLOUDS BELOW 12,000 FEET WITH NO
SIGNIFICANT WEATHER AND/OR OBSTRUCTIONS TO VISIBILITY.

* - STATION DOES NOT REPORT WEATHER SUCH AS PRECIPITATION OR FOG.

+ - STATION NOT QUALITY CONTROLLED BY THE NATIONAL WEATHER SERVICE.
    USE DATA WITH CAUTION...ESPECIALLY DEWPOINT AND RELATIVE
    HUMIDITY OBSERVATIONS.

INZ001>003-010>013-019-020-200200-
NORTHWEST INDIANA

CITY           SKY/WX    TMP DP  RH WIND       PRES   REMARKS
GARY /AIRPORT/ CLEAR     70  55  60 VRB3      29.97R
KNOX *+        CLEAR     66  63  88 NE3       29.97S
LA PORTE +     CLEAR     65  57  74 CALM      29.98S
MICHIGAN CITY+ CLEAR     64  61  88 CALM      29.98S
MONTICELLO +   CLEAR     72  61  68 CALM      29.96R
RENSSELAER +   CLEAR     72  54  53 CALM      29.96S
VALPARAISO     CLEAR     70  60  70 NE3       29.98R

$$

LMZ046-743>745-200200-
SOUTHERN LAKE MICHIGAN

STATION/POSITION TIME  TEMP    WIND        PRES    WAVE
                       AIR SEA DIR/SP/G            HT
                 (UTC) (F)     (DEG/KT/KT) (MB)    (FT)
BURNS HARBOR     0040   75      80/  6/  6 1014.9S
MICHIGAN CITY    0010   73      60/  6/  6   N/A
5NW MICH CITY    0100   74 75  100/  6/  6   N/A     1

$$

INZ004-005-014>016-021>024-200200-
NORTH CENTRAL INDIANA

CITY           SKY/WX    TMP DP  RH WIND       PRES   REMARKS
GOSHEN         CLEAR     72  57  59 N6        29.97R
LOGANSPORT +   CLEAR     70  63  78 E3        29.98R
PERU/GRISSOM   CLEAR     74  62  67 CALM      29.97R
ROCHESTER +    CLEAR     72  63  73 CALM      29.98R
SOUTH BEND     CLEAR     67  60  78 NW5       29.98S
WARSAW +       CLEAR     70  63  78 CALM      29.97S

$$

INZ006>009-017-018-025>027-200200-
NORTHEAST INDIANA

CITY           SKY/WX    TMP DP  RH WIND       PRES   REMARKS
AUBURN +       CLEAR     70  63  78 CALM      29.98S
FORT WAYNE     CLEAR     72  60  66 NW3       29.98R
HUNTINGTON +   CLEAR     68  63  83 CALM      29.98R

$$

INZ028-029-035-036-043>045-051>053-200200-
WEST CENTRAL INDIANA

CITY           SKY/WX    TMP DP  RH WIND       PRES   REMARKS
GREENCASTLE +  CLOUDY    72  64  78 CALM      29.96S
LAFAYETTE      CLEAR     72  63  73 NE5       29.95R
TERRE HAUTE    CLEAR     76  68  76 CALM      29.94R

$$

INZ030>032-037>040-046>048-054>057-064-065-200200-
CENTRAL INDIANA

CITY           SKY/WX    TMP DP  RH WIND       PRES   REMARKS
CP ATTERBURY + PTCLDY    73  68  83 CALM      29.95S
COLUMBUS       PTCLDY    77  68  73 CALM      29.94S
FRANKFORT +    CLOUDY    74  65  72 CALM      29.99R
GREENWOOD *+   CLOUDY    78  64  61 NE6       29.97R
INDIANAPOLIS   PTCLDY    80  64  58 NE10      29.95R
-EAGLE CREEK   CLEAR     78  64  61 NE5       29.95R
KOKOMO +       CLEAR     73  63  70 CALM      29.99R
MARION +       CLEAR     70  63  78 CALM      29.99R
MT COMFORT *+  CLEAR     73  66  78 N6        29.98R
SHELBYVILLE    CLEAR     77  66  68 N6        29.95R
ZIONSVILLE +   CLEAR     71  64  79 NE3       29.98R

$$

INZ033-034-041-042-049-050-058-059-200200-
EAST CENTRAL INDIANA

CITY           SKY/WX    TMP DP  RH WIND       PRES   REMARKS
MUNCIE         CLEAR     70  65  84 CALM      29.98R
RICHMOND +     CLEAR     72  66  83 N3        29.99R

$$

INZ060-061-067>069-081>083-085>088-200200-
SOUTHWEST INDIANA

CITY           SKY/WX    TMP DP  RH WIND       PRES   REMARKS
EVANSVILLE     CLEAR     79  70  74 CALM      29.93S
HUNTINGBURG +  CLEAR     79  69  71 S3        29.95R
WASHINGTON +   CLEAR     76  70  81 MISG      29.93R

$$

INZ062-063-066-070>080-084-089>092-200200-
SOUTH CENTRAL AND SOUTHEAST INDIANA

CITY           SKY/WX    TMP DP  RH WIND       PRES   REMARKS
BEDFORD +      CLOUDY    79  68  69 CALM      29.94
BLOOMINGTON    PTCLDY    76  67  73 CALM      29.95S
MADISON *+     CLOUDY    73  64  73 CALM      29.97F
NORTH VERNON + PTCLDY    75  66  73 S3        29.96R
SEYMOUR +      CLOUDY    79  68  69 CALM      29.94S

$$




USA.gov is the U.S. government's official web portal to all federal, state and local government web resources and services.